Hourly Weather Namyur

Today, 24 September, Thursday

Time Temperature Precipitation Wind Pressure Humidity
00:00 +15°C° 0 mm 7 mps 741 mmHg 86%
01:00 +13°C° 0.1 mm 6 mps 741 mmHg 87%
02:00 +11°C° 0.1 mm 6 mps 741 mmHg 87%
03:00 +9°C° 0.1 mm 5 mps 742 mmHg 88%
04:00 +9°C° 0 mm 5 mps 742 mmHg 88%
05:00 +8°C° 0 mm 5 mps 742 mmHg 89%
06:00 +8°C° 0 mm 4 mps 743 mmHg 89%
07:00 +9°C° 0 mm 5 mps 743 mmHg 80%
08:00 +11°C° 0 mm 6 mps 743 mmHg 72%
09:00 +14°C° 0 mm 7 mps 743 mmHg 63%
10:00 +15°C° 0 mm 7 mps 743 mmHg 59%
11:00 +16°C° 0 mm 7 mps 742 mmHg 54%
12:00 +17°C° 0 mm 7 mps 742 mmHg 49%
13:00 +18°C° 0 mm 7 mps 741 mmHg 51%
14:00 +18°C° 0 mm 7 mps 741 mmHg 52%
15:00 +18°C° 0 mm 7 mps 740 mmHg 53%
16:00 +16°C° 0.8 mm 6 mps 739 mmHg 66%
17:00 +14°C° 0.8 mm 5 mps 739 mmHg 78%
18:00 +12°C° 0.8 mm 5 mps 738 mmHg 91%
19:00 +12°C° 0.5 mm 5 mps 738 mmHg 90%
20:00 +11°C° 0.5 mm 6 mps 738 mmHg 90%
21:00 +11°C° 0.5 mm 6 mps 738 mmHg 89%
22:00 +10°C° 0.4 mm 6 mps 738 mmHg 88%
23:00 +9°C° 0.4 mm 6 mps 738 mmHg 88%

Tomorrow, 25 September, Friday

Time Temperature Precipitation Wind Pressure Humidity
00:00 +8°C° 0.4 mm 5 mps 738 mmHg 87%
01:00 +8°C° 0 mm 5 mps 738 mmHg 87%
02:00 +7°C° 0 mm 4 mps 738 mmHg 88%
03:00 +6°C° 0 mm 4 mps 738 mmHg 89%
04:00 +6°C° 0 mm 4 mps 737 mmHg 89%
05:00 +6°C° 0 mm 5 mps 737 mmHg 88%
06:00 +7°C° 0 mm 5 mps 737 mmHg 88%
07:00 +8°C° 0.2 mm 6 mps 736 mmHg 87%
08:00 +9°C° 0.2 mm 6 mps 736 mmHg 85%
09:00 +10°C° 0.2 mm 6 mps 736 mmHg 83%
10:00 +10°C° 0.5 mm 6 mps 736 mmHg 80%
11:00 +11°C° 0.5 mm 6 mps 736 mmHg 77%
12:00 +11°C° 0.5 mm 6 mps 736 mmHg 74%
13:00 +11°C° 0.5 mm 6 mps 736 mmHg 77%
14:00 +10°C° 0.5 mm 7 mps 736 mmHg 80%
15:00 +9°C° 0.5 mm 7 mps 736 mmHg 84%
16:00 +9°C° 0.6 mm 8 mps 737 mmHg 85%
17:00 +9°C° 0.6 mm 8 mps 737 mmHg 87%
18:00 +9°C° 0.6 mm 8 mps 737 mmHg 88%
19:00 +9°C° 0.5 mm 8 mps 738 mmHg 88%
20:00 +9°C° 0.5 mm 8 mps 738 mmHg 88%
21:00 +9°C° 0.5 mm 8 mps 738 mmHg 88%
22:00 +8°C° 0.4 mm 7 mps 739 mmHg 90%
23:00 +8°C° 0.4 mm 6 mps 739 mmHg 91%

Day after tomorrow, 26 September, Saturday

Time Temperature Precipitation Wind Pressure Humidity
00:00 +8°C° 0.4 mm 5 mps 739 mmHg 92%
01:00 +8°C° 0.2 mm 5 mps 740 mmHg 92%
02:00 +7°C° 0.2 mm 5 mps 740 mmHg 93%
03:00 +7°C° 0.2 mm 5 mps 741 mmHg 94%
04:00 +7°C° 0.5 mm 6 mps 742 mmHg 93%
05:00 +7°C° 0.5 mm 6 mps 742 mmHg 93%
06:00 +8°C° 0.5 mm 6 mps 743 mmHg 92%
07:00 +8°C° 0.6 mm 7 mps 743 mmHg 90%
08:00 +8°C° 0.6 mm 7 mps 743 mmHg 88%
09:00 +9°C° 0.6 mm 7 mps 743 mmHg 86%
10:00 +9°C° 0.3 mm 7 mps 743 mmHg 85%
11:00 +9°C° 0.3 mm 7 mps 743 mmHg 83%
12:00 +10°C° 0.3 mm 7 mps 743 mmHg 82%
13:00 +10°C° 0.2 mm 7 mps 743 mmHg 82%
14:00 +10°C° 0.2 mm 8 mps 743 mmHg 81%
15:00 +10°C° 0.2 mm 8 mps 743 mmHg 81%
16:00 +10°C° 0.2 mm 8 mps 743 mmHg 84%
17:00 +9°C° 0.2 mm 8 mps 743 mmHg 87%
18:00 +9°C° 0.2 mm 7 mps 743 mmHg 90%
19:00 +9°C° 0.2 mm 7 mps 743 mmHg 92%
20:00 +9°C° 0.2 mm 6 mps 743 mmHg 93%
21:00 +10°C° 0.2 mm 5 mps 743 mmHg 94%
22:00 +10°C° 1.1 mm 5 mps 743 mmHg 95%
23:00 +10°C° 1.1 mm 5 mps 742 mmHg 96%

27 September, Sunday

Time Temperature Precipitation Wind Pressure Humidity
00:00 +10°C° 1.1 mm 5 mps 742 mmHg 97%
01:00 +10°C° 2 mm 5 mps 742 mmHg 96%
02:00 +10°C° 2 mm 5 mps 741 mmHg 96%
03:00 +10°C° 2 mm 5 mps 741 mmHg 95%
04:00 +10°C° 1.1 mm 5 mps 741 mmHg 96%
05:00 +10°C° 1.1 mm 5 mps 741 mmHg 96%
06:00 +10°C° 1.1 mm 5 mps 741 mmHg 97%
07:00 +12°C° 0.4 mm 4 mps 741 mmHg 96%
08:00 +13°C° 0.4 mm 4 mps 741 mmHg 95%
09:00 +13°C° 0.4 mm 3 mps 742 mmHg 95%
10:00 +14°C° 0.2 mm 3 mps 742 mmHg 93%
11:00 +16°C° 0.2 mm 3 mps 742 mmHg 91%
12:00 +17°C° 0.2 mm 2 mps 743 mmHg 89%
13:00 +17°C° 0.4 mm 3 mps 743 mmHg 87%
14:00 +18°C° 0.4 mm 3 mps 743 mmHg 85%
15:00 +18°C° 0.4 mm 4 mps 743 mmHg 82%
16:00 +18°C° 0.3 mm 4 mps 743 mmHg 87%
17:00 +17°C° 0.3 mm 3 mps 744 mmHg 91%
18:00 +16°C° 0.3 mm 3 mps 744 mmHg 95%
19:00 +15°C° 0.6 mm 4 mps 744 mmHg 95%
20:00 +15°C° 0.6 mm 4 mps 745 mmHg 96%
21:00 +15°C° 0.6 mm 5 mps 745 mmHg 97%
22:00 +15°C° 0.2 mm 5 mps 745 mmHg 97%
23:00 +15°C° 0.2 mm 5 mps 746 mmHg 97%

28 September, Monday

Time Temperature Precipitation Wind Pressure Humidity
00:00 +15°C° 0.2 mm 5 mps 746 mmHg 97%
01:00 +15°C° 0.1 mm 5 mps 746 mmHg 97%
02:00 +15°C° 0.1 mm 5 mps 746 mmHg 97%
03:00 +15°C° 0.1 mm 5 mps 746 mmHg 97%
04:00 +15°C° 0.1 mm 5 mps 747 mmHg 97%
05:00 +15°C° 0.1 mm 5 mps 747 mmHg 96%
06:00 +15°C° 0.1 mm 5 mps 747 mmHg 96%
07:00 +15°C° 0.1 mm 5 mps 748 mmHg 96%
08:00 +15°C° 0.1 mm 5 mps 748 mmHg 96%
09:00 +15°C° 0.1 mm 5 mps 748 mmHg 95%
10:00 +15°C° 0.1 mm 5 mps 749 mmHg 95%
11:00 +15°C° 0.1 mm 5 mps 749 mmHg 95%
12:00 +14°C° 0.1 mm 5 mps 749 mmHg 94%
13:00 +14°C° 0 mm 5 mps 749 mmHg 94%
14:00 +14°C° 0 mm 5 mps 749 mmHg 93%
15:00 +14°C° 0 mm 4 mps 749 mmHg 92%
16:00 +14°C° 0 mm 4 mps 750 mmHg 91%
17:00 +13°C° 0 mm 3 mps 750 mmHg 90%
18:00 +13°C° 0 mm 3 mps 751 mmHg 89%
19:00 +12°C° 0 mm 3 mps 751 mmHg 86%
20:00 +12°C° 0 mm 2 mps 751 mmHg 83%
21:00 +12°C° 0 mm 2 mps 751 mmHg 79%
22:00 +10°C° 0 mm 2 mps 751 mmHg 82%
23:00 +9°C° 0 mm 2 mps 751 mmHg 84%

29 September, Tuesday

Time Temperature Precipitation Wind Pressure Humidity
00:00 +9°C° 0 mm 2 mps 752 mmHg 87%
01:00 +9°C° 0.1 mm 2 mps 752 mmHg 89%
02:00 +10°C° 0.1 mm 3 mps 752 mmHg 91%
03:00 +11°C° 0.1 mm 3 mps 752 mmHg 94%
04:00 +11°C° 0.1 mm 3 mps 752 mmHg 94%
05:00 +11°C° 0.1 mm 3 mps 752 mmHg 95%
06:00 +11°C° 0.1 mm 3 mps 752 mmHg 96%
07:00 +13°C° 0 mm 3 mps 752 mmHg 93%
08:00 +14°C° 0 mm 3 mps 752 mmHg 90%
09:00 +16°C° 0 mm 3 mps 752 mmHg 87%
10:00 +17°C° 0.1 mm 4 mps 752 mmHg 83%
11:00 +18°C° 0.1 mm 4 mps 752 mmHg 79%
12:00 +19°C° 0.1 mm 4 mps 752 mmHg 75%
13:00 +18°C° 0.2 mm 3 mps 752 mmHg 78%
14:00 +18°C° 0.2 mm 3 mps 752 mmHg 80%
15:00 +17°C° 0.2 mm 2 mps 751 mmHg 83%
16:00 +17°C° 0.1 mm 2 mps 752 mmHg 85%
17:00 +16°C° 0.1 mm 1 mps 752 mmHg 88%
18:00 +15°C° 0.1 mm 1 mps 752 mmHg 91%
19:00 +15°C° 0.1 mm 1 mps 752 mmHg 91%
20:00 +14°C° 0.1 mm 1 mps 752 mmHg 92%
21:00 +14°C° 0.1 mm 1 mps 752 mmHg 93%
22:00 +14°C° 0.1 mm 1 mps 751 mmHg 92%
23:00 +13°C° 0.1 mm 1 mps 751 mmHg 92%
Show more